EZS1377 LSGG-LFMN

Flight info

Callsign EZS1377
Flight time 0h 44m
Altitude 21000
Route MEDAM DCT VEVAR
Aircraft A20N/M-SDE2E3FGHIRWXY/LB1

Departure

Time 2026-05-06 18:16
Airport Geneva International Airport (LSGG)

Arrival

Time 2026-05-06 19:01
Airport Nice-Côte d'Azur Airport (LFMN)
Time Latitude Longitude Altitude Speed Heading
2026-05-06 17:54 46.23131 6.10701 1396 ft 0 kts 135°
2026-05-06 18:06 46.23141 6.10685 1411 ft 2 kts 135°
2026-05-06 18:06 46.23153 6.10669 1405 ft 2 kts 136°
2026-05-06 18:07 46.23160 6.10649 1406 ft 2 kts 52°
2026-05-06 18:07 46.23149 6.10633 1406 ft 2 kts 45°
2026-05-06 18:07 46.23147 6.10629 1396 ft 0 kts 46°
2026-05-06 18:10 46.23149 6.10633 1408 ft 3 kts 46°
2026-05-06 18:10 46.23178 6.10676 1396 ft 8 kts 46°
2026-05-06 18:10 46.23221 6.10741 1400 ft 10 kts 46°
2026-05-06 18:11 46.23280 6.10786 1396 ft 11 kts 17°
2026-05-06 18:11 46.23345 6.10827 1399 ft 10 kts 43°
2026-05-06 18:11 46.23390 6.10897 1399 ft 9 kts 46°
2026-05-06 18:11 46.23431 6.10961 1397 ft 9 kts 46°
2026-05-06 18:12 46.23480 6.11029 1404 ft 12 kts 44°
2026-05-06 18:12 46.23557 6.11138 1398 ft 18 kts 44°
2026-05-06 18:12 46.23621 6.11140 1398 ft 9 kts 317°
2026-05-06 18:12 46.23665 6.11076 1405 ft 10 kts 319°
2026-05-06 18:13 46.23723 6.11110 1384 ft 12 kts 45°
2026-05-06 18:13 46.23797 6.11218 1380 ft 17 kts 45°
2026-05-06 18:13 46.23879 6.11340 1379 ft 17 kts 46°
2026-05-06 18:13 46.23967 6.11468 1376 ft 19 kts 47°
2026-05-06 18:14 46.24063 6.11608 1372 ft 20 kts 45°
2026-05-06 18:14 46.24166 6.11758 1368 ft 22 kts 45°
2026-05-06 18:14 46.24276 6.11917 1365 ft 22 kts 41°
2026-05-06 18:14 46.24333 6.11920 1367 ft 6 kts 315°
2026-05-06 18:15 46.24333 6.11824 1370 ft 11 kts 255°
2026-05-06 18:15 46.24310 6.11693 1374 ft 16 kts 256°
2026-05-06 18:15 46.24221 6.11502 1377 ft 39 kts 226°
2026-05-06 18:15 46.23853 6.10964 1380 ft 113 kts 226°
2026-05-06 18:16 46.23140 6.09915 1518 ft 167 kts 226°
2026-05-06 18:16 46.22316 6.08731 2323 ft 171 kts 226°
2026-05-06 18:16 46.21422 6.07413 2876 ft 194 kts 226°
2026-05-06 18:16 46.20459 6.05988 3588 ft 203 kts 225°
2026-05-06 18:17 46.19441 6.04490 4275 ft 212 kts 225°
2026-05-06 18:17 46.18373 6.02926 4867 ft 226 kts 225°
2026-05-06 18:17 46.17222 6.01241 5322 ft 246 kts 225°
2026-05-06 18:17 46.16002 5.99446 6025 ft 256 kts 226°
2026-05-06 18:18 46.14743 5.97596 6908 ft 260 kts 224°
2026-05-06 18:18 46.13290 5.96012 7769 ft 265 kts 209°
2026-05-06 18:18 46.11529 5.95164 8624 ft 272 kts 188°
2026-05-06 18:18 46.09632 5.95474 9480 ft 282 kts 160°
2026-05-06 18:19 46.07930 5.96974 10263 ft 293 kts 144°
2026-05-06 18:19 46.06296 5.98908 10652 ft 315 kts 141°
2026-05-06 18:19 46.04577 6.01042 11000 ft 337 kts 141°
2026-05-06 18:19 46.02764 6.03284 11343 ft 357 kts 141°
2026-05-06 18:20 46.00830 6.05654 11903 ft 369 kts 141°
2026-05-06 18:20 45.98851 6.08065 12650 ft 376 kts 142°
2026-05-06 18:20 45.96833 6.10511 13439 ft 381 kts 142°
2026-05-06 18:20 45.95082 6.12627 14081 ft 385 kts 142°
2026-05-06 18:21 45.93015 6.15121 14786 ft 390 kts 142°
2026-05-06 18:21 45.90952 6.17605 15490 ft 394 kts 142°
2026-05-06 18:21 45.88840 6.20145 16176 ft 398 kts 142°
2026-05-06 18:21 45.86700 6.22713 16857 ft 402 kts 142°
2026-05-06 18:22 45.84547 6.25297 17535 ft 407 kts 142°
2026-05-06 18:22 45.82363 6.27913 18233 ft 411 kts 142°
2026-05-06 18:22 45.80151 6.30561 18849 ft 414 kts 142°
2026-05-06 18:22 45.77935 6.33211 19421 ft 418 kts 142°
2026-05-06 18:23 45.75691 6.35892 19996 ft 421 kts 142°
2026-05-06 18:23 45.73834 6.38109 20473 ft 424 kts 142°
2026-05-06 18:23 45.71555 6.40825 21012 ft 428 kts 142°
2026-05-06 18:23 45.69272 6.43542 21282 ft 439 kts 142°
2026-05-06 18:24 45.66891 6.46371 21531 ft 450 kts 142°
2026-05-06 18:24 45.64463 6.49255 21860 ft 457 kts 142°
2026-05-06 18:24 45.62009 6.52167 21929 ft 458 kts 142°
2026-05-06 18:24 45.59550 6.55084 21941 ft 459 kts 142°
2026-05-06 18:25 45.57095 6.57991 21934 ft 459 kts 143°
2026-05-06 18:25 45.54639 6.60896 21939 ft 459 kts 143°
2026-05-06 18:25 45.52171 6.63812 21947 ft 459 kts 143°
2026-05-06 18:25 45.49714 6.66711 21935 ft 459 kts 143°
2026-05-06 18:26 45.47250 6.69614 21938 ft 459 kts 143°
2026-05-06 18:26 45.44814 6.72481 21933 ft 459 kts 143°
2026-05-06 18:26 45.42350 6.75378 21936 ft 459 kts 143°
2026-05-06 18:26 45.39885 6.78275 21924 ft 459 kts 143°
2026-05-06 18:27 45.37413 6.81173 21919 ft 459 kts 143°
2026-05-06 18:27 45.34947 6.84061 21918 ft 459 kts 143°
2026-05-06 18:27 45.32507 6.86916 21906 ft 459 kts 143°
2026-05-06 18:27 45.30042 6.89796 21903 ft 459 kts 144°
2026-05-06 18:28 45.27577 6.92692 21895 ft 460 kts 142°
2026-05-06 18:28 45.25114 6.95582 21888 ft 456 kts 150°
2026-05-06 18:28 45.22262 6.97434 21898 ft 447 kts 167°
2026-05-06 18:28 45.19218 6.98022 21887 ft 438 kts 184°
2026-05-06 18:29 45.16222 6.97637 21897 ft 436 kts 189°
2026-05-06 18:29 45.13195 6.97291 21895 ft 438 kts 186°
2026-05-06 18:29 45.10140 6.97236 21893 ft 440 kts 182°
2026-05-06 18:29 45.07073 6.97407 21893 ft 442 kts 180°
2026-05-06 18:30 45.04006 6.97715 21888 ft 442 kts 179°
2026-05-06 18:30 45.01334 6.98048 21888 ft 442 kts 178°
2026-05-06 18:30 44.98274 6.98471 21884 ft 442 kts 178°
2026-05-06 18:30 44.95207 6.98920 21879 ft 442 kts 178°
2026-05-06 18:31 44.92145 6.99381 21867 ft 442 kts 177°
2026-05-06 18:31 44.89093 6.99848 21881 ft 441 kts 177°
2026-05-06 18:31 44.86046 7.00318 21866 ft 440 kts 178°
2026-05-06 18:31 44.83005 7.00787 21864 ft 440 kts 178°
2026-05-06 18:32 44.79958 7.01287 21858 ft 441 kts 176°
2026-05-06 18:32 44.76921 7.01956 21859 ft 442 kts 174°
2026-05-06 18:32 44.73932 7.02677 21846 ft 423 kts 174°
2026-05-06 18:32 44.71109 7.03369 21864 ft 403 kts 174°
2026-05-06 18:33 44.68441 7.04016 21854 ft 383 kts 175°
2026-05-06 18:33 44.65872 7.04636 21860 ft 366 kts 175°
2026-05-06 18:33 44.63415 7.05225 21852 ft 349 kts 175°
2026-05-06 18:33 44.61062 7.05788 21860 ft 333 kts 176°
2026-05-06 18:34 44.58864 7.06309 21812 ft 314 kts 176°
2026-05-06 18:34 44.56741 7.06811 21882 ft 314 kts 177°
2026-05-06 18:34 44.54504 7.07322 21877 ft 338 kts 176°
2026-05-06 18:34 44.52111 7.07870 21870 ft 356 kts 176°
2026-05-06 18:35 44.50459 7.08256 21869 ft 368 kts 175°
2026-05-06 18:35 44.47840 7.08873 21866 ft 387 kts 175°
2026-05-06 18:35 44.45161 7.09506 21875 ft 404 kts 175°
2026-05-06 18:35 44.42325 7.10174 21867 ft 419 kts 175°
2026-05-06 18:36 44.39395 7.10864 21866 ft 434 kts 175°
2026-05-06 18:36 44.36401 7.11574 21868 ft 438 kts 175°
2026-05-06 18:36 44.33390 7.12294 21854 ft 437 kts 175°
2026-05-06 18:36 44.30431 7.12996 21880 ft 438 kts 175°
2026-05-06 18:37 44.27423 7.13707 21874 ft 436 kts 175°
2026-05-06 18:37 44.24461 7.14407 22023 ft 421 kts 175°
2026-05-06 18:37 44.21640 7.15062 22076 ft 400 kts 175°
2026-05-06 18:37 44.19035 7.16283 22065 ft 392 kts 162°
2026-05-06 18:38 44.16584 7.17791 21991 ft 376 kts 163°
2026-05-06 18:38 44.14239 7.19239 21879 ft 366 kts 163°
2026-05-06 18:38 44.11886 7.20666 21845 ft 366 kts 163°
2026-05-06 18:38 44.09517 7.22077 21622 ft 380 kts 163°
2026-05-06 18:39 44.07037 7.23528 21169 ft 403 kts 163°
2026-05-06 18:39 44.04422 7.25062 20645 ft 409 kts 162°
2026-05-06 18:39 44.01798 7.26606 20153 ft 409 kts 162°
2026-05-06 18:40 43.96563 7.29678 19292 ft 406 kts 162°
2026-05-06 18:40 43.93948 7.31202 18888 ft 405 kts 161°
2026-05-06 18:40 43.91357 7.32713 18475 ft 404 kts 161°
2026-05-06 18:40 43.88755 7.34229 18151 ft 403 kts 161°
2026-05-06 18:41 43.86174 7.35731 17760 ft 402 kts 161°
2026-05-06 18:41 43.83614 7.37292 17346 ft 401 kts 156°
2026-05-06 18:41 43.82324 7.38317 17130 ft 402 kts 150°
2026-05-06 18:41 43.80199 7.40755 16740 ft 405 kts 136°
2026-05-06 18:42 43.78557 7.43955 16346 ft 407 kts 123°
2026-05-06 18:42 43.77201 7.47388 15952 ft 406 kts 120°
2026-05-06 18:42 43.75909 7.50856 15575 ft 404 kts 120°
2026-05-06 18:42 43.74638 7.54309 15190 ft 397 kts 120°
2026-05-06 18:43 43.73403 7.57670 14789 ft 388 kts 120°
2026-05-06 18:43 43.72193 7.60956 14375 ft 379 kts 120°
2026-05-06 18:43 43.71017 7.64139 13967 ft 372 kts 120°
2026-05-06 18:43 43.69851 7.67292 13543 ft 365 kts 120°
2026-05-06 18:44 43.68703 7.70392 13057 ft 357 kts 120°
2026-05-06 18:44 43.67587 7.73404 12524 ft 345 kts 120°
2026-05-06 18:44 43.66507 7.76315 11978 ft 335 kts 120°
2026-05-06 18:44 43.65465 7.79116 11430 ft 327 kts 120°
2026-05-06 18:45 43.64435 7.81885 10868 ft 321 kts 120°
2026-05-06 18:45 43.63423 7.84599 10317 ft 316 kts 120°
2026-05-06 18:45 43.62425 7.87275 9771 ft 311 kts 120°
2026-05-06 18:45 43.61366 7.89845 9164 ft 305 kts 129°
2026-05-06 18:46 43.59935 7.91937 8533 ft 294 kts 148°
2026-05-06 18:46 43.58158 7.93164 7942 ft 282 kts 171°
2026-05-06 18:46 43.56243 7.93355 7346 ft 270 kts 194°
2026-05-06 18:46 43.54533 7.92449 6775 ft 261 kts 211°
2026-05-06 18:47 43.52977 7.91235 6235 ft 258 kts 212°
2026-05-06 18:47 43.51412 7.89978 5646 ft 255 kts 213°
2026-05-06 18:47 43.49898 7.88783 5080 ft 253 kts 212°
2026-05-06 18:47 43.48384 7.87609 4696 ft 244 kts 212°
2026-05-06 18:48 43.46962 7.86522 4615 ft 223 kts 212°
2026-05-06 18:48 43.45652 7.85528 4486 ft 206 kts 212°
2026-05-06 18:48 43.44428 7.84602 4537 ft 198 kts 212°
2026-05-06 18:48 43.43261 7.83711 4537 ft 183 kts 214°
2026-05-06 18:49 43.42398 7.82527 4529 ft 174 kts 246°
2026-05-06 18:49 43.42369 7.80914 4540 ft 173 kts 288°
2026-05-06 18:49 43.42924 7.79541 4426 ft 160 kts 298°
2026-05-06 18:49 43.43543 7.78357 4274 ft 148 kts 300°
2026-05-06 18:50 43.44192 7.77110 4222 ft 169 kts 299°
2026-05-06 18:50 43.44889 7.75754 4053 ft 175 kts 300°
2026-05-06 18:50 43.45590 7.74382 3876 ft 176 kts 299°
2026-05-06 18:50 43.46291 7.72996 3695 ft 175 kts 299°
2026-05-06 18:51 43.46984 7.71623 3520 ft 175 kts 299°
2026-05-06 18:51 43.47729 7.70124 3358 ft 203 kts 300°
2026-05-06 18:51 43.48551 7.68468 3144 ft 218 kts 300°
2026-05-06 18:51 43.49418 7.66736 2954 ft 219 kts 301°
2026-05-06 18:52 43.50283 7.65011 2779 ft 218 kts 301°
2026-05-06 18:52 43.51138 7.63305 2632 ft 214 kts 300°
2026-05-06 18:52 43.51982 7.61618 2489 ft 213 kts 300°
2026-05-06 18:52 43.52821 7.59937 2319 ft 212 kts 300°
2026-05-06 18:53 43.53658 7.58254 2134 ft 213 kts 300°
2026-05-06 18:53 43.54483 7.56600 1992 ft 201 kts 301°
2026-05-06 18:53 43.55235 7.55097 2010 ft 184 kts 300°
2026-05-06 18:53 43.55908 7.53752 2002 ft 156 kts 299°
2026-05-06 18:54 43.56494 7.52581 2047 ft 149 kts 298°
2026-05-06 18:54 43.57085 7.51379 2039 ft 152 kts 298°
2026-05-06 18:54 43.57681 7.50169 2025 ft 152 kts 299°
2026-05-06 18:54 43.58278 7.48956 2015 ft 160 kts 299°
2026-05-06 18:55 43.58926 7.47636 2025 ft 170 kts 300°
2026-05-06 18:55 43.59600 7.46271 2020 ft 173 kts 300°
2026-05-06 18:55 43.60282 7.44896 2034 ft 174 kts 300°
2026-05-06 18:55 43.60969 7.43514 2032 ft 175 kts 300°
2026-05-06 18:56 43.61651 7.42139 2025 ft 176 kts 301°
2026-05-06 18:56 43.62341 7.40749 2019 ft 175 kts 301°
2026-05-06 18:56 43.63036 7.39362 2024 ft 176 kts 301°
2026-05-06 18:56 43.63739 7.37971 2035 ft 176 kts 301°
2026-05-06 18:57 43.64398 7.36682 2019 ft 149 kts 302°
2026-05-06 18:57 43.64950 7.35609 2012 ft 128 kts 301°
2026-05-06 18:57 43.65451 7.34622 2026 ft 126 kts 301°
2026-05-06 18:57 43.65953 7.33629 2033 ft 126 kts 301°
2026-05-06 18:58 43.66458 7.32632 1934 ft 127 kts 301°
2026-05-06 18:58 43.66965 7.31632 1751 ft 127 kts 301°
2026-05-06 18:58 43.67473 7.30630 1573 ft 128 kts 300°
2026-05-06 18:58 43.67986 7.29620 1382 ft 128 kts 301°
2026-05-06 18:59 43.68472 7.28651 1206 ft 129 kts 297°
2026-05-06 18:59 43.68770 7.27804 1064 ft 127 kts 283°
2026-05-06 18:59 43.68884 7.26609 894 ft 124 kts 263°
2026-05-06 18:59 43.68673 7.25467 704 ft 123 kts 243°
2026-05-06 19:00 43.68176 7.24517 535 ft 122 kts 227°
2026-05-06 19:00 43.67585 7.23696 320 ft 121 kts 225°
2026-05-06 19:00 43.66989 7.22880 119 ft 121 kts 224°
2026-05-06 19:00 43.66405 7.22087 25 ft 111 kts 225°
2026-05-06 19:01 43.66037 7.21579 20 ft 32 kts 224°
2026-05-06 19:01 43.65937 7.21446 22 ft 22 kts 224°
2026-05-06 19:01 43.65808 7.21272 25 ft 26 kts 224°
2026-05-06 19:01 43.65679 7.21099 25 ft 25 kts 228°
2026-05-06 19:02 43.65670 7.20903 23 ft 24 kts 332°
2026-05-06 19:02 43.65766 7.20873 23 ft 13 kts 351°
2026-05-06 19:02 43.65855 7.20852 23 ft 13 kts 350°
2026-05-06 19:02 43.65937 7.20833 23 ft 12 kts 351°
2026-05-06 19:03 43.65984 7.20778 23 ft 9 kts 289°
2026-05-06 19:03 43.65992 7.20720 24 ft 4 kts 276°
2026-05-06 19:03 43.65992 7.20719 24 ft 0 kts 276°